Location: Unspecified
(0.0000°N, 0.0000°E)
Time: 04:24:15
(UTC+02:00)

Transit 2A - Visible Passes

Search period start: 30 May 2015 00:00
Search period end: 09 June 2015 00:00
Orbit: 593 x 967 km, 66.7° (Epoch: 28 May)

Date Brightness Start Highest point End Pass type
(mag) Time Alt. Az. Time Alt. Az. Time Alt. Az.
01 Jun 8.8 22:31:00 11° NNE 22:31:00 11° NNE 22:31:18 10° NNE visible
02 Jun 7.2 21:53:44 35° NE 21:53:44 35° NE 21:57:24 10° NNE visible
02 Jun 9.1 23:33:42 11° WNW 23:34:40 12° WNW 23:36:25 10° NW visible
03 Jun 6.8 21:11:59 10° S 21:17:23 38° ESE 21:23:12 10° NE visible
03 Jun 8.7 22:56:19 10° WSW 23:00:41 19° WNW 23:04:52 10° NNW visible
04 Jun 7.3 20:39:00 10° SSE 20:43:35 24° ESE 20:48:35 10° ENE visible
04 Jun 8.1 22:21:28 10° SW 22:26:46 30° WNW 22:32:08 10° N visible
05 Jun 7.3 21:47:06 10° SW 21:52:54 48° WNW 21:58:56 10° N visible
06 Jun 6.6 21:13:05 10° SSW 21:19:04 76° WNW 21:25:25 10° NNE visible
07 Jun 6.4 20:39:20 10° SSW 20:45:17 70° ESE 20:51:36 10° NNE visible
08 Jun 9.2 21:50:51 10° WSW 21:54:51 17° WNW 21:58:34 10° NNW visible
